EHI
1 0 0 1 0 0 0 1 0 1 1 1 1 1 0 0 0 1 2 3 4 2 1 2 4 5 6 6 3 1 0 0 0 1 2 2 2 2 1 0 1 2 2
2 1 1 1 1 0 0 1 0 0 0 0 0 0 0 0 0 0 1 2 4 4 2 3 5 7 8 8 6 2 0 0 0 1 1 1 2 2 2 1 0 1 1
3 2 2 2 1 0 0 1 0 0 0 0 0 0 0 0 0 0 0 1 2 4 5 6 8 10 10 9 7 5 3 2 1 1 0 0 1 1 2 1 0 0 1
3 3 3 2 1 0 1 1 1 0 0 0 0 0 0 0 0 0 0 0 0 2 6 11 12 12 11 8 7 7 6 5 3 2 1 1 1 1 1 1 0 0 1
4 4 4 3 1 0 1 2 2 1 1 0 1 1 0 0 0 0 0 0 0 0 3 8 12 13 13 11 8 8 7 5 4 3 3 3 3 1 0 0 0 0 0
4 4 3 2 1 1 1 2 2 2 1 2 2 1 0 0 0 0 0 0 0 0 1 4 9 12 13 12 10 8 6 5 4 4 4 5 4 2 1 0 0 0 0
3 3 3 2 1 1 1 1 3 2 2 3 4 2 0 0 0 0 0 0 0 0 0 3 7 8 8 9 10 10 9 7 5 4 5 6 5 4 2 1 0 0 0
4 4 4 3 2 2 3 3 5 4 2 3 4 2 0 0 1 0 0 1 1 1 0 1 3 3 3 5 8 11 11 8 6 5 6 6 6 5 4 3 1 1 1
5 5 4 4 4 5 6 7 6 4 3 3 4 4 2 1 1 1 1 1 2 1 0 0 0 0 1 2 6 8 8 6 5 6 6 6 6 6 5 5 3 2 2
6 4 4 5 6 6 7 6 6 6 5 4 6 6 4 3 3 3 2 1 1 1 0 0 0 0 0 2 4 4 4 3 3 5 6 6 6 6 6 6 5 3 2
5 4 4 6 6 4 3 3 5 7 7 6 7 8 7 6 5 5 3 2 1 0 1 1 1 0 1 3 4 3 2 1 1 3 4 5 6 8 7 7 6 3 1
6 5 5 6 5 3 1 2 5 7 8 9 10 11 10 8 6 5 4 3 2 1 1 1 1 0 2 3 5 4 2 0 0 1 1 2 4 8 8 7 6 4 2
7 7 6 6 5 3 1 2 5 7 9 11 12 14 13 11 10 9 8 5 3 3 2 1 1 1 2 4 6 4 2 0 0 0 0 0 2 4 6 6 5 4 3
5 6 7 7 5 3 2 3 5 6 8 9 10 11 12 12 13 13 10 6 4 3 2 1 1 1 2 4 6 4 3 1 0 0 0 0 0 1 2 3 3 3 2
6 7 8 8 7 6 7 7 7 8 8 8 8 9 10 10 10 10 8 5 4 4 3 2 2 3 2 3 4 5 4 3 1 0 0 0 0 0 0 1 1 1 0
9 9 10 11 12 13 14 13 11 11 11 11 10 11 11 8 5 4 4 4 4 4 3 2 3 5 6 5 5 7 6 4 2 0 0 0 0 0 0 0 0 0 0
12 12 14 15 16 17 18 16 14 13 13 14 14 13 12 9 5 3 3 4 4 4 3 2 3 7 11 11 11 12 9 6 3 1 0 0 0 0 0 0 0 0 0
17 18 18 18 17 18 18 17 16 15 14 15 15 13 11 10 8 7 6 5 5 6 5 3 3 7 12 12 14 15 12 9 6 2 0 0 0 0 0 0 0 0 0
23 22 21 20 18 17 17 17 16 16 16 16 15 14 11 10 8 9 10 9 8 8 7 4 4 8 10 10 11 13 13 12 8 3 1 0 0 0 0 0 0 0 0
24 24 22 21 19 17 16 17 17 16 15 15 14 13 12 9 8 8 10 12 11 9 8 7 6 10 11 10 10 10 12 14 11 6 2 1 0 0 0 0 0 0 0
25 25 24 22 20 17 16 17 17 16 13 12 12 13 13 9 6 5 6 9 10 10 10 9 9 9 10 10 9 8 10 13 12 9 6 4 2 1 1 0 0 0 0
29 28 27 24 21 16 12 12 14 14 12 12 13 15 13 9 5 3 2 3 5 8 10 11 10 9 8 9 8 8 9 11 12 12 10 7 5 4 3 1 0 0 0
32 31 29 28 24 16 7 4 6 9 10 12 14 14 12 8 6 4 3 3 3 4 6 8 8 8 8 8 9 10 10 10 10 12 12 9 6 6 4 2 0 0 0
34 32 30 30 27 17 5 0 1 4 6 8 10 11 10 8 6 6 6 6 6 4 3 4 4 5 6 7 8 11 11 9 9 10 11 10 7 5 4 3 1 0 0
33 31 30 30 27 17 5 0 1 2 4 6 8 7 6 6 5 4 6 6 5 4 2 1 1 1 2 3 4 8 9 8 7 8 9 9 8 6 5 4 3 1 0
31 29 29 29 26 17 6 0 1 2 4 8 10 7 3 2 3 2 4 5 4 2 1 0 0 0 0 0 2 5 6 6 7 7 7 8 8 6 5 5 4 2 0
Wind_Speed
0 0 0 1 1 0 1 1 1 1 2 3 3 3 3 3 3 3 3 8 8 8 8 8 9 9 9 9 9 8 8 9 8 8 8 8 8 8 8 8 7 7 7
1 1 1 1 1 0 1 1 1 1 2 1 3 3 4 3 3 3 2 6 10 9 8 8 9 9 9 9 9 9 9 8 9 8 9 9 8 8 8 8 8 8 7
1 2 1 2 1 1 1 2 2 2 2 2 2 3 3 3 2 3 4 3 6 10 10 9 9 9 10 10 9 9 8 8 8 8 9 9 9 9 8 8 7 7 7
2 2 2 1 1 2 1 1 2 2 1 2 1 2 2 2 3 4 4 4 3 4 9 10 9 9 9 10 10 9 9 9 9 9 9 10 10 10 9 9 8 7 7
3 3 2 1 2 2 2 2 0 2 1 2 2 3 3 3 3 4 4 4 4 4 4 9 10 9 10 10 10 10 10 10 10 10 10 10 10 10 10 10 9 8 8
3 3 2 2 3 2 2 1 2 2 2 3 3 2 3 3 3 3 4 3 3 4 4 4 6 9 11 10 10 10 10 10 10 10 10 10 10 10 11 11 10 10 9
3 3 3 1 3 2 2 3 3 3 3 2 3 2 3 4 3 3 3 3 2 3 3 3 4 3 6 12 11 10 10 10 10 10 10 10 11 11 10 11 11 10 10
3 3 3 3 2 2 2 3 3 3 3 2 3 2 2 3 3 3 3 3 2 2 3 3 3 3 4 4 7 11 11 10 10 10 10 9 10 11 11 10 11 10 10
3 3 3 3 3 3 2 3 3 4 3 2 3 3 3 1 1 3 2 2 2 2 3 2 4 3 4 4 4 9 9 9 10 10 10 9 9 10 10 11 10 10 10
3 3 3 3 3 3 2 4 2 2 3 3 2 3 4 3 3 2 3 2 2 3 3 3 3 2 3 3 2 2 6 7 8 9 10 10 10 10 10 10 10 10 10
2 2 1 2 2 3 2 2 1 3 2 3 3 2 2 3 5 4 3 2 2 2 2 3 2 2 2 3 3 3 5 6 7 7 8 9 10 11 11 11 11 11 10
2 1 1 1 2 2 2 2 2 2 2 3 3 3 3 2 3 3 3 4 3 2 2 2 2 2 2 3 2 3 4 5 5 6 7 8 9 10 10 10 11 10 10
2 1 1 1 1 1 2 2 2 2 2 3 3 3 3 3 3 3 4 4 4 2 2 3 2 2 3 2 1 3 4 4 4 5 5 6 6 6 7 7 8 9 9
1 1 1 2 2 2 2 1 2 2 2 3 3 3 3 2 2 3 3 4 4 3 3 2 2 2 2 2 1 3 3 4 4 4 4 4 5 5 6 6 6 7 7
2 2 2 2 2 2 2 2 2 2 2 3 3 3 3 2 2 3 3 4 4 5 3 2 2 1 2 2 1 3 2 4 5 4 4 5 5 5 6 6 6 6 6
2 2 2 2 2 2 2 2 2 1 2 2 3 3 3 3 2 2 3 3 4 5 5 3 2 2 3 3 2 3 3 4 6 6 5 5 5 5 6 6 6 6 6
3 3 3 3 3 2 2 2 2 2 3 3 3 2 3 3 3 3 3 3 3 4 5 4 3 2 3 4 3 3 4 4 3 6 6 5 5 5 5 5 6 6 6
4 4 4 4 3 3 2 2 3 2 3 3 3 3 3 2 3 4 3 3 3 4 5 5 4 3 3 4 4 4 4 3 3 4 6 5 5 4 4 5 5 5 5
4 4 4 4 3 3 3 2 2 2 3 3 3 3 3 3 4 3 4 4 4 4 4 5 5 3 4 3 4 5 4 3 4 3 6 6 5 4 4 4 4 4 5
4 4 4 4 4 3 3 2 2 2 2 2 3 3 3 4 4 4 4 4 4 4 4 5 5 4 3 3 3 4 4 3 3 3 1 2 4 5 5 4 4 4 4
4 4 4 4 4 3 2 1 2 2 2 2 2 3 2 2 3 4 5 4 4 4 4 4 4 4 3 3 3 4 4 3 2 3 2 2 2 2 3 4 4 4 4
4 4 4 3 3 1 3 1 2 2 2 2 3 3 2 3 3 3 3 4 5 5 5 5 4 4 4 5 4 4 4 4 3 1 3 3 2 1 1 1 3 3 3
4 4 3 3 3 2 3 2 1 3 3 3 3 3 4 1 2 3 3 5 5 5 6 6 6 6 6 5 5 5 4 5 4 3 3 4 2 2 2 1 6 4 3
4 4 4 3 3 3 3 2 2 4 3 3 3 3 3 3 3 4 4 4 4 3 4 5 5 6 6 5 5 6 5 5 5 3 3 4 3 2 1 1 6 5 4
4 4 4 4 4 4 4 3 4 4 3 3 3 3 3 3 2 4 5 4 5 4 3 4 4 5 5 6 6 5 5 4 4 3 2 3 3 2 2 1 4 7 6
4 4 4 4 4 3 4 3 4 4 3 3 3 3 2 2 2 3 5 4 5 5 5 3 4 6 6 5 5 5 5 5 5 3 1 2 3 2 2 1 1 2 3
Wind_Direction
255 45 59 301 283 161 189 206 222 202 230 224 237 222 240 247 243 243 154 164 189 206 213 215 212 212 214 212 210 207 207 209 209 210 210 211 212 215 216 216 219 220 222
239 261 230 257 267 287 343 289 251 244 252 254 249 241 245 236 219 241 226 172 185 200 211 215 214 212 212 214 213 212 212 212 209 210 210 209 211 215 218 221 225 226 226
251 266 262 244 225 227 215 233 242 244 243 238 237 245 242 238 230 235 243 230 189 188 201 212 217 215 214 213 213 215 213 212 214 216 216 214 215 216 216 220 225 227 224
250 261 259 262 258 254 234 225 238 252 261 267 249 247 238 223 230 230 233 227 230 206 189 197 213 217 217 216 213 215 215 215 218 220 220 218 219 219 219 219 224 227 223
241 256 273 297 254 247 255 257 247 275 265 272 248 222 232 228 228 230 235 234 226 232 222 176 198 213 216 216 215 218 220 219 220 222 223 221 220 220 220 221 223 226 224
235 264 258 254 261 245 249 271 273 262 270 260 272 267 248 235 227 222 238 228 222 228 231 221 203 200 206 213 216 220 224 225 225 224 224 225 224 223 221 220 222 224 223
235 248 279 261 262 251 261 262 262 247 252 250 255 246 232 219 218 210 228 245 234 237 236 230 241 235 198 202 210 219 224 228 230 227 225 225 225 224 222 220 220 222 223
239 226 241 259 266 268 255 259 256 269 264 250 266 259 235 203 211 215 218 222 249 239 231 224 232 233 252 213 190 206 220 227 231 230 229 228 227 225 223 222 222 221 223
246 270 253 263 271 268 254 256 252 248 260 259 262 276 271 262 245 206 224 227 238 251 247 238 233 229 237 240 208 194 210 222 229 233 233 230 228 226 223 224 224 223 223
248 249 252 261 272 280 266 254 248 265 259 261 241 261 284 308 278 247 210 206 221 236 258 267 258 223 230 234 210 173 192 212 228 235 236 234 230 225 223 225 226 225 226
236 263 267 259 260 273 283 291 293 278 262 269 269 250 244 239 248 262 267 258 243 235 237 255 281 264 245 236 231 181 182 207 223 232 236 237 234 227 225 226 228 229 228
208 224 245 263 266 274 265 262 267 254 279 289 287 284 269 263 265 266 266 259 259 244 244 253 256 255 250 242 229 127 179 206 219 229 233 235 234 229 228 230 232 232 231
216 210 246 243 264 267 270 273 265 285 263 265 268 275 282 287 292 285 281 286 283 266 237 236 235 242 253 253 189 155 191 206 219 224 228 231 231 228 227 229 233 234 235
249 221 232 231 247 250 258 263 260 257 259 258 265 279 274 282 291 283 278 281 279 266 238 254 262 246 256 255 99 212 205 181 206 217 222 228 232 229 228 227 229 233 234
223 212 231 223 235 242 259 264 275 279 277 271 263 247 264 267 265 275 275 276 281 286 283 243 251 267 262 242 184 238 243 162 186 202 212 220 227 229 231 230 229 229 230
226 225 227 224 229 230 227 248 251 263 272 276 289 301 286 279 282 273 278 280 282 284 290 304 291 293 305 281 195 258 259 190 195 199 208 217 225 231 230 227 226 224 224
214 220 225 228 231 232 231 241 267 267 271 280 283 275 275 293 286 281 283 288 286 282 279 288 296 303 287 283 283 268 257 249 207 183 201 215 223 230 227 221 223 220 220
214 213 222 225 228 225 229 237 253 271 277 280 280 276 271 270 279 287 292 287 285 284 277 282 289 286 271 266 269 268 262 253 256 170 184 204 219 224 222 215 214 217 220
211 220 221 221 220 217 222 231 247 259 272 283 279 273 275 281 282 291 287 286 281 276 276 276 278 284 276 277 276 266 268 269 263 190 182 197 209 213 218 216 215 210 214
211 217 219 218 217 219 221 223 240 268 283 295 292 281 280 282 283 285 277 278 285 287 274 274 280 280 277 280 273 275 273 254 267 279 242 203 189 195 205 208 209 209 211
213 210 217 215 215 215 211 209 237 234 270 289 293 285 282 308 327 304 303 305 292 284 282 281 285 288 298 305 296 292 285 281 274 290 281 257 210 212 200 200 206 209 211
215 213 219 216 218 218 81 63 275 258 257 264 276 285 264 229 228 229 276 305 307 291 297 295 290 300 306 303 305 295 298 290 284 301 287 275 262 256 245 226 139 156 186
207 209 210 208 202 144 129 154 245 261 254 262 272 276 279 304 276 271 236 226 243 251 263 281 292 297 301 308 305 292 292 291 292 295 280 278 269 261 247 147 136 150 170
203 204 204 199 193 164 154 178 223 239 249 254 259 269 282 294 311 314 292 287 283 271 255 255 281 289 298 307 295 283 279 272 265 259 261 269 271 268 256 167 145 159 173
204 211 201 197 199 180 172 194 242 244 238 247 250 254 267 277 339 315 281 280 286 284 236 231 266 278 297 296 290 281 272 268 273 271 261 270 275 272 259 224 158 168 179
207 214 202 207 206 196 170 199 248 250 239 241 234 224 196 271 320 301 278 282 285 296 301 281 248 244 253 248 233 256 277 276 277 281 279 270 277 280 264 224 151 160 181